{"data":{"norad_id":68908,"epoch":"2026-09-19T08:34:28.390656Z","epoch_age_seconds":114127,"freshness":"FRESH","line1":"1 68908U 26097P   26262.35727304  .00012386  00000+0  38505-3 0  9997","line2":"2 68908  97.2819  96.4672 0003196 115.8589 244.2984 15.33466751 21916","mean_motion":15.33466751,"eccentricity":0.0003196,"inclination_deg":97.2819,"raan_deg":96.4672,"arg_perigee_deg":115.8589,"mean_anomaly_deg":244.2984,"bstar":0.00038505,"rev_number":2191,"period_min":93.904872672391,"perigee_km":463.29124006933,"apogee_km":467.66567907109,"semimajor_km":6843.6154595702,"source":"CELESTRAK","updated_at":"2026-09-20T09:00:44.048638Z"}}